Olathe New Century, KS

11:13 AM CDT on March 26, 2017 (GMT -0500)
New Century Aircenter

Weather History for KIXD - October, 2011

Change the Weather History Date:

Thursday, October 20, 2011

  Actual Average Record
Temperature  
Mean Temperature 41 °F -  
Max Temperature 54 °F 64 °F 87 °F (2003)
Min Temperature 28 °F 43 °F 28 °F (2011)
Degree Days  
Heating Degree Days 24    
Moisture  
Dew Point 26 °F    
Average Humidity 53    
Maximum Humidity 75    
Minimum Humidity 34    
Precipitation  
Precipitation 0.00 in - - ()
Sea Level Pressure  
Sea Level Pressure 30.07 in    
Wind  
Wind Speed 8 mph (NW)    
Max Wind Speed 16 mph    
Max Gust Speed 18 mph    
Visibility 10 miles    
Events      
Averages and records for this station are not official NWS values.
T = Trace of Precipitation, MM = Missing Value Source: NWS Daily Summary

Daily Weather History Graph

Daily Weather History Graph

Search for Another Location

Airport or City:

Trip Planner

Search our weather history database for the weather conditions in past years. The results will help you decide how hot, cold, wet, or windy it might be!

Date:

Astronomy

Oct. 20, 2011 Rise Set
Actual Time 7:33 AM CDT 6:34 PM CDT
Civil Twilight 7:06 AM CDT 7:01 PM CDT
Nautical Twilight 6:35 AM CDT 7:32 PM CDT
Astronomical Twilight 6:04 AM CDT 8:03 PM CDT
Moon 12:23 AM CDT (10/20) 2:40 PM CDT (10/20)
Length of Visible Light 11h 54m
Length of Day
11h 00m
Last Quarter, 44% of the Moon is Illuminated
Oct 20
Last Quarter
Oct 26
New
Nov 2
First Quarter
Nov 10
Full
Nov 18
Last Quarter

Hourly Weather History & Observations

Time (CDT) Temp. Windchill Dew Point Humidity Pressure Visibility Wind Dir Wind Speed Gust Speed Precip Events Conditions
12:53 AM 36.0 °F 29.0 °F 23.0 °F 59% 30.02 in 10.0 mi NNW 9.2 mph - N/A   Clear
1:53 AM 33.1 °F 26.9 °F 23.0 °F 66% 30.03 in 10.0 mi NW 6.9 mph - N/A   Clear
3:53 AM 32.0 °F 24.2 °F 23.0 °F 69% 30.03 in 10.0 mi NW 9.2 mph - N/A   Clear
4:53 AM 30.0 °F 23.2 °F 23.0 °F 75% 30.04 in 10.0 mi NW 6.9 mph - N/A   Clear
6:53 AM 28.9 °F 21.1 °F 21.9 °F 75% 30.05 in 10.0 mi WNW 8.1 mph - N/A   Clear
8:53 AM 33.1 °F 26.1 °F 26.1 °F 75% 30.09 in 10.0 mi WNW 8.1 mph - N/A   Clear
9:53 AM 39.9 °F 33.4 °F 28.0 °F 63% 30.10 in 10.0 mi NW 10.4 mph - N/A   Clear
10:53 AM 45.0 °F 37.9 °F 28.0 °F 52% 30.10 in 10.0 mi NW 16.1 mph - N/A   Clear
11:53 AM 48.9 °F - 28.0 °F 44% 30.09 in 10.0 mi NNW 15.0 mph - N/A   Clear
12:53 PM 50.0 °F - 28.0 °F 43% 30.07 in 10.0 mi NNW 8.1 mph - N/A   Clear
1:53 PM 52.0 °F - 28.0 °F 40% 30.06 in 10.0 mi WNW 12.7 mph 18.4 mph N/A   Clear
3:53 PM 54.0 °F - 26.1 °F 34% 30.04 in 10.0 mi WNW 6.9 mph - N/A   Clear
4:53 PM 54.0 °F - 26.1 °F 34% 30.04 in 10.0 mi West 11.5 mph - N/A   Clear
5:53 PM 52.0 °F - 26.1 °F 37% 30.05 in 10.0 mi WNW 9.2 mph - N/A   Clear
6:53 PM 46.9 °F - 26.1 °F 44% 30.07 in 10.0 mi WNW 5.8 mph - N/A   Clear
7:53 PM 46.0 °F - 25.0 °F 44% 30.09 in 10.0 mi Calm Calm - N/A   Clear
8:53 PM 43.0 °F - 26.1 °F 51% 30.09 in 10.0 mi Calm Calm - N/A   Clear
9:53 PM 42.1 °F - 26.1 °F 53% 30.11 in 10.0 mi Calm Calm - N/A   Clear
10:53 PM 41.0 °F 39.0 °F 26.1 °F 55% 30.12 in 10.0 mi West 3.5 mph - N/A   Clear
11:53 PM 41.0 °F - 26.1 °F 55% 30.13 in 10.0 mi Calm Calm - N/A   Clear